This demonstration page uses our WeatherBlox Daily Observations layout. Learn more.

Left ArrowRight Arrow

39.08367, -84.50855

Hourly Observations for March 26, 2016

Temp ( °F °C ) Dew Point ( °F °C ) Humidity (%) Winds ( mph kmh ) Pressure ( in mb ) Visibility ( mi km ) Precip ( " mm )
12:53 am 00:53 Clear 34 1.1 33 0.6 97 97 N N/A 30.2 1023 8 12.87472 N/A
1:53 am 01:53 Clear with Mist and Fog 32 undefined 32 undefined 100 100 NNE 5 7 30.19 1022 6 9.65604 N/A
2:53 am 02:53 Clear with Mist and Fog 32 undefined 32 undefined 100 100 NE 3 6 30.19 1022 5 8.0467 N/A
3:53 am 03:53 Clear 33 0.6 32 undefined 96 96 NNE 3 6 30.19 1022 10 16.0934 N/A
4:53 am 04:53 Clear 32 undefined 31 -0.6 96 96 NNE 3 6 30.19 1022 7 11.26538 N/A
5:53 am 05:53 Clear with Mist and Fog 30 -1.1 30 -1.1 100 100 NNE 3 6 30.2 1023 5 8.0467 N/A
6:53 am 06:53 Clear 29 -1.7 29 -1.7 100 100 NNE 3 6 30.2 1023 10 16.0934 N/A
7:53 am 07:53 Sunny 29 -1.7 29 -1.7 100 100 NNE 3 6 30.22 1023 10 16.0934 N/A
8:53 am 08:53 Sunny 36 2.2 33 0.6 89 89 NNE 5 7 30.24 1024 8 12.87472 N/A
9:53 am 09:53 Sunny 42 5.6 36 2.2 79 79 NNE 7 11 30.23 1024 10 16.0934 N/A
10:53 am 10:53 Sunny 48 8.9 38 3.3 68 68 SE 8 13 30.22 1024 10 16.0934 N/A
11:53 am 11:53 Sunny 51 10.6 38 3.3 61 61 NE 8 13 30.2 1023 10 16.0934 N/A
12:53 pm 12:53 Sunny 53 11.7 38 3.3 57 57 NE 8 13 30.19 1022 10 16.0934 N/A
1:53 pm 13:53 Sunny 57 13.9 40 4.4 53 53 SSE 7 11 30.17 1022 10 16.0934 N/A
2:53 pm 14:53 Sunny 58 14.4 40 4.4 51 51 SSW 5 7 30.16 1021 10 16.0934 N/A
3:53 pm 15:53 Sunny 61 16.1 40 4.4 46 46 VRB 3 6 30.14 1021 10 16.0934 N/A
4:53 pm 16:53 Sunny 63 17.2 38 3.3 40 40 ENE 8 13 30.12 1020 10 16.0934 N/A
5:53 pm 17:53 Sunny 63 17.2 32 undefined 31 31 ESE 8 13 30.12 1020 10 16.0934 N/A
6:53 pm 18:53 Sunny 62 16.7 32 undefined 32 32 ESE 6 9 30.13 1020 10 16.0934 N/A
7:53 pm 19:53 Sunny 58 14.4 35 1.7 42 42 NE 6 9 30.13 1020 10 16.0934 N/A
8:53 pm 20:53 Clear 53 11.7 39 3.9 59 59 NNE 3 6 30.12 1020 10 16.0934 N/A
9:53 pm 21:53 Clear 46 7.8 41 5 83 83 N N/A 30.12 1020 10 16.0934 N/A
10:53 pm 22:53 Clear 44 6.7 40 4.4 85 85 N N/A 30.12 1020 10 16.0934 N/A
11:53 pm 23:53 Clear 41 5 39 3.9 93 93 N N/A 30.13 1020 10 16.0934 N/A

Powered by AerisWeather